Terminal Aerodrome Forecast
Issued by NWS

Home | Current Version | Previous Version | Text Only | Print | Product List | Glossary On
Versions: 1 2 3 4 5 6 7 8 9 10 11 12 13 14 15 16 17 18 19 20 21 22 23 24 25 26 27 28 29 30 31 32 33 34 35 36 37 38 39 40 41 42 43 44 45 46 47 48 49 50
000
FTUS43 KDMX 080859 AAC
TAFFOD
TAF AMD
KFOD 080859Z 0809/0906 33020G34KT 2SM -SHSN BLSN OVC015
      TEMPO 0809/0813 1/2SM SN OVC009
     FM081600 34023G32KT 1SM -SHSN BLSN OVC010
     FM082300 33014G25KT 4SM BLSN OVC013
     FM090300 33013KT P6SM OVC018=

USA.gov is the U.S. government's official web portal to all federal, state and local government web resources and services.